User: anonymous   Login
Location: Dreilärchen
(47.9312°N, 8.6113°E)
Time: 07:53:57
(UTC+00:00)
Language:

Cosmos 1328 - Orbit

View from above orbital plane
View from above orbital plane
View from above satellite
View from above satellite

Ground track
Ground track

The orbit data is extracted from the following two-line orbital elements,

1 12987U 81117A   22222.67876453  .00001526  00000-0  92710-4 0  9998
2 12987  82.5047 208.8290 0021027  51.9990 308.3134 15.09589093215615
Epoch (UTC): 10 August 2022 16:17:25
Eccentricity: 0.0021027
inclination: 82.5047°
perigee height: 523 km
apogee height: 552 km
right ascension of ascending node: 208.8290°
argument of perigee: 51.9990°
revolutions per day: 15.09589093
mean anomaly at epoch: 308.3134°
orbit number at epoch: 21561

The dashed part of the orbit path shows where the satellite is in the earth's shadow,  

DLR